This demonstration page uses our WeatherBlox Daily Observations layout. Learn more.

Left ArrowRight Arrow

53.62937, 11.41316

Hourly Observations for May 19, 2016

Temp ( °F °C ) Dew Point ( °F °C ) Humidity (%) Winds ( mph kmh ) Pressure ( in mb ) Visibility ( mi km ) Precip ( " mm )
6:20 am 06:20 Mostly Sunny 52 11 46 8 82 82 E 3 6 29.77 1008 7 11 N/A
6:50 am 06:50 Mostly Sunny 55 13 46 8 72 72 E 5 7 29.77 1008 7 11 N/A
7:20 am 07:20 Mostly Sunny 55 13 48 9 77 77 ENE 6 9 29.77 1008 7 11 N/A
7:50 am 07:50 Mostly Sunny 57 14 48 9 72 72 ENE 6 9 29.80 1009 7 11 N/A
8:20 am 08:20 Mostly Sunny 57 14 48 9 72 72 E 6 9 29.80 1009 7 11 N/A
8:50 am 08:50 Mostly Sunny 59 15 48 9 68 68 E 6 9 29.80 1009 7 11 N/A
9:20 am 09:20 Mostly Sunny 59 15 48 9 68 68 E 6 9 29.80 1009 7 11 N/A
9:50 am 09:50 Mostly Sunny 61 16 48 9 63 63 E 5 7 29.80 1009 7 11 N/A
10:20 am 10:20 Mostly Sunny 64 18 48 9 56 56 ESE 6 9 29.83 1010 7 11 N/A
10:50 am 10:50 Mostly Sunny 66 19 48 9 52 52 E 8 13 29.83 1010 7 11 N/A
11:20 am 11:20 Mostly Sunny 68 20 46 8 46 46 E 8 13 29.83 1010 7 11 N/A
11:50 am 11:50 Mostly Sunny 68 20 43 6 40 40 SE 9 15 29.83 1010 7 11 N/A
12:20 pm 12:20 Mostly Sunny 70 21 41 5 35 35 ESE 6 9 29.83 1010 7 11 N/A
12:50 pm 12:50 Mostly Sunny 72 22 43 6 36 36 VRB 5 7 29.83 1010 7 11 N/A
1:20 pm 13:20 Mostly Sunny 68 20 39 4 35 35 VRB 3 6 29.83 1010 7 11 N/A
1:50 pm 13:50 Mostly Sunny 70 21 39 4 33 33 VRB 5 7 29.83 1010 7 11 N/A
2:20 pm 14:20 Mostly Sunny 68 20 39 4 35 35 SE 7 11 29.83 1010 7 11 N/A
2:50 pm 14:50 Mostly Sunny 70 21 39 4 33 33 VRB 3 6 29.83 1010 7 11 N/A
3:20 pm 15:20 Mostly Sunny 72 22 41 5 33 33 E 8 13 29.83 1010 7 11 N/A
3:50 pm 15:50 Mostly Sunny 70 21 39 4 33 33 VRB 6 9 29.83 1010 7 11 N/A
4:20 pm 16:20 Mostly Sunny 72 22 41 5 33 33 SE 7 11 29.85 1011 7 11 N/A
4:50 pm 16:50 Mostly Sunny 72 22 43 6 36 36 NE 8 13 29.85 1011 7 11 N/A
5:20 pm 17:20 Mostly Sunny 70 21 43 6 38 38 NE 8 13 29.85 1011 7 11 N/A
5:50 pm 17:50 Mostly Sunny 70 21 41 5 35 35 ENE 8 13 29.85 1011 7 11 N/A
6:20 pm 18:20 Mostly Sunny 68 20 41 5 38 38 ENE 10 17 29.85 1011 7 11 N/A
6:50 pm 18:50 Mostly Sunny 72 22 43 6 36 36 SE 5 7 29.85 1011 7 11 N/A

Powered by AerisWeather